GFSFLT1_925_temp_000.txt.gz
Temp
29 28 28 27 27 26 26 23 23 22 21 21 21 21 21 20 20 19 18 18 17 17 17 17 17 17 17 18 18 17 17 17
25 25 25 25 25 25 24 22 22 22 22 21 20 19 19 19 19 18 18 18 17 16 16 16 16 16 16 16 16 16 16 17
25 24 24 23 23 22 21 20 21 20 20 19 19 18 18 18 18 17 17 16 16 16 16 16 15 15 14 15 15 15 15 16
24 23 22 22 21 21 20 19 18 18 19 18 18 18 17 17 16 16 16 16 15 15 15 15 14 14 13 14 14 14 13 13
24 22 21 20 19 19 19 18 18 17 18 17 17 17 16 16 15 14 14 14 14 14 14 14 13 13 12 13 12 12 12 12
22 22 20 19 19 18 19 18 18 17 16 15 15 15 14 14 14 14 14 13 13 13 13 12 12 11 11 11 11 11 10 9
22 21 20 19 18 18 18 18 18 17 16 16 15 14 14 14 14 13 12 12 11 11 11 11 10 10 10 10 9 9 8 7
22 22 21 19 19 18 18 18 18 18 17 16 15 15 14 13 12 11 10 10 10 10 10 10 9 9 9 8 8 7 6 5
21 21 20 20 19 19 18 17 17 17 16 15 15 13 12 12 10 10 10 10 9 9 9 9 8 7 7 6 6 5 5 5
22 21 20 20 19 19 18 17 17 17 16 14 13 12 11 11 10 10 10 9 9 8 7 6 6 6 5 4 4 4 4 3
21 21 20 20 19 18 17 17 16 15 13 12 11 11 11 10 10 10 9 8 7 7 6 5 5 4 4 3 2 2 3 3
21 20 19 18 17 17 16 14 13 13 12 11 11 11 10 10 10 8 7 6 6 5 5 4 4 3 3 3 3 2 2 2
19 18 16 16 15 14 14 12 12 12 11 10 10 10 10 9 8 7 6 6 5 5 5 4 4 4 3 3 2 2 2 2
18 17 16 16 15 14 13 13 12 11 10 10 10 10 9 8 7 7 6 6 5 5 5 4 4 4 4 4 3 3 2 1
16 16 15 14 13 13 13 13 12 11 10 10 10 9 8 7 7 6 6 5 5 5 5 4 4 4 3 2 1 1 0 0
15 14 14 14 13 13 13 13 12 11 9 9 9 9 8 7 6 6 5 5 5 4 4 4 3 3 1 0 -1 -1 -2 -2
14 14 13 13 13 13 12 12 12 12 11 10 9 9 8 6 6 5 5 5 4 4 4 3 3 2 1 -1 -2 -3 -3 -3
13 13 13 13 12 12 12 11 11 11 11 10 9 5 4 4 5 5 5 5 4 4 3 3 2 1 -0 -2 -3 -4 -4 -4
13 13 13 12 12 11 11 10 10 10 10 10 7 5 5 5 5 4 4 4 4 4 3 2 1 0 -1 -2 -3 -4 -5 -5

GFSFLT1_925_temp_003.txt.gz
Temp
22 24 25 25 25 23 21 21 21 21 21 21 20 19 19 19 18 18 18 17 17 17 16 16 17 16 16 16 16 16 16 16
20 21 22 21 21 21 19 20 21 21 20 20 19 19 18 18 17 18 18 18 17 16 16 16 16 15 15 15 15 15 15 15
20 19 20 19 20 19 19 18 19 19 18 18 18 18 18 19 18 18 16 15 15 15 15 15 14 14 14 14 14 14 13 14
19 18 19 19 19 19 19 19 19 18 18 19 18 18 17 17 16 15 15 14 14 14 14 13 13 13 13 13 13 12 12 12
18 18 18 18 18 18 18 18 19 18 17 17 16 15 14 14 14 14 13 12 13 13 12 12 12 11 11 11 11 11 11 10
16 18 18 18 18 18 18 18 17 17 17 16 15 15 14 14 13 12 12 12 12 11 11 11 11 10 10 10 9 9 9 8
18 18 18 18 18 18 18 18 18 17 17 15 15 15 14 12 12 12 11 11 11 11 10 10 10 9 9 8 8 8 7 7
16 17 18 18 18 18 18 18 18 17 16 15 15 14 12 11 11 10 10 10 10 10 9 9 8 7 7 7 6 6 5 5
17 19 18 19 19 19 18 18 17 17 16 14 13 12 11 11 10 10 10 10 10 8 8 7 7 6 5 5 4 4 4 4
18 19 19 17 17 17 17 17 16 15 14 13 12 11 10 9 9 10 10 8 8 7 7 6 5 5 5 4 4 3 3 2
16 16 16 16 15 15 15 14 13 12 12 11 11 10 9 9 9 8 7 7 7 6 6 5 5 4 4 3 3 3 3 2
14 15 15 15 14 14 14 13 13 13 12 12 11 11 10 9 9 8 7 7 6 6 5 5 4 4 4 3 3 3 2 2
14 15 15 14 13 13 13 13 13 12 12 11 10 10 10 9 8 7 7 6 6 5 5 4 4 4 4 3 2 2 1 1
12 13 14 13 13 13 13 13 12 12 12 11 10 9 9 8 7 7 6 5 5 5 5 4 4 4 3 3 2 1 0 0
12 12 12 13 13 13 12 12 12 12 11 10 9 9 8 7 6 5 5 5 5 5 4 4 4 3 3 2 1 0 -1 -1
11 11 12 12 12 11 11 11 11 10 9 9 10 9 7 5 3 4 3 4 5 4 4 4 4 3 2 1 -0 -1 -2 -2
11 11 12 12 11 11 10 9 9 9 8 8 9 7 5 4 3 3 4 5 5 4 4 4 3 2 1 -0 -2 -2 -2 -4
10 11 11 11 11 9 9 8 8 8 7 7 6 5 4 3 2 4 4 4 4 4 4 3 2 1 -0 -1 -2 -3 -4 -4
10 11 11 11 9 9 8 8 7 7 6 5 5 5 3 3 3 4 4 4 4 4 3 2 1 -0 -1 -2 -3 -4 -5 -5

GFSFLT1_925_temp_006.txt.gz
Temp
17 19 20 20 19 18 20 20 19 20 20 20 19 18 18 18 18 18 17 17 16 16 16 16 16 15 15 15 15 15 14 14
17 17 17 17 17 17 18 19 18 18 18 18 18 18 18 17 17 17 16 16 16 15 15 14 14 14 13 13 13 13 13 13
16 16 17 17 17 17 18 17 18 18 17 18 18 17 17 16 16 15 15 14 14 14 13 13 12 12 12 12 12 11 11 11
16 16 17 18 18 18 18 18 18 18 18 17 17 17 17 16 15 15 14 13 13 12 12 12 11 11 11 11 11 10 9 9
16 16 17 17 17 17 18 18 18 18 18 18 17 16 15 14 13 13 12 12 12 11 11 10 10 9 9 9 9 9 9 8
14 16 17 18 18 18 18 18 18 17 17 17 16 15 14 13 12 12 11 11 11 10 10 10 9 9 8 8 7 6 6 6
15 17 18 18 18 18 18 18 17 17 16 16 15 14 13 12 11 11 10 10 10 10 9 8 8 7 7 6 5 4 4 4
14 16 17 18 18 18 18 17 17 16 16 14 14 12 11 11 10 10 10 10 9 8 8 7 7 6 5 5 4 4 3 3
14 15 15 16 15 15 15 14 14 14 12 11 11 11 10 10 10 9 8 8 8 7 7 6 6 5 5 4 4 3 3 3
13 13 14 14 14 14 14 14 13 13 12 12 12 12 11 11 10 9 8 8 7 7 6 6 5 5 4 4 3 3 3 3
12 13 13 13 13 14 13 13 13 12 12 12 12 11 10 10 10 9 8 8 7 6 6 5 5 4 4 4 3 3 3 2
11 12 13 13 13 13 12 12 12 12 12 11 11 11 10 9 8 7 7 6 5 6 5 5 4 4 4 3 3 3 2 1
11 12 12 12 12 12 11 11 11 10 10 10 10 10 9 9 7 7 6 6 5 5 5 4 4 4 3 3 3 2 1 1
10 11 11 11 11 11 11 10 10 9 9 9 8 8 8 8 7 6 5 5 3 3 4 4 4 4 4 3 1 0 -0 -1
10 10 10 11 11 11 10 9 9 9 9 8 7 7 7 6 5 4 4 1 2 3 4 4 4 3 3 1 1 -0 -1 -2
10 10 10 10 10 9 9 9 8 8 8 7 6 6 6 6 5 4 3 4 3 4 4 4 3 3 2 0 -1 -1 -2 -2
10 10 10 10 9 8 8 8 8 7 7 6 6 5 5 4 4 3 3 3 3 3 4 3 3 2 1 -0 -1 -2 -2 -3
9 9 10 9 8 8 8 8 7 7 6 5 5 5 4 4 3 2 2 3 2 3 3 2 2 -0 -1 -2 -2 -3 -4 -5
9 10 9 9 9 8 8 7 7 6 6 5 4 4 4 3 3 2 1 2 3 3 2 1 -0 -1 -2 -3 -4 -5 -5 -6

GFSFLT1_925_temp_009.txt.gz
Temp
14 18 18 18 18 17 16 16 16 17 17 17 17 17 17 17 16 16 16 16 16 15 15 14 14 13 13 13 12 12 12 11
14 15 16 17 17 17 17 15 15 16 17 17 16 17 16 16 15 15 15 14 14 14 13 13 12 12 12 11 11 11 10 10
14 15 17 17 17 17 17 17 17 17 17 17 17 16 16 15 14 14 14 13 13 13 13 12 12 11 11 10 9 9 9 9
14 15 16 18 18 18 18 18 18 18 18 18 17 16 15 15 14 13 13 12 12 12 11 11 10 10 9 8 8 7 7 7
14 15 16 17 17 18 18 18 18 18 18 17 17 17 15 13 12 11 11 11 10 10 10 10 9 8 8 8 7 6 6 4
13 15 17 18 18 18 18 18 17 17 17 16 16 15 13 11 11 10 10 10 9 9 9 8 9 8 7 7 6 5 4 4
14 16 16 16 15 15 15 15 15 16 15 15 14 13 11 10 10 10 10 9 9 9 8 8 7 7 7 6 4 4 4 3
14 14 14 14 15 16 15 15 15 13 13 12 11 11 11 11 12 11 11 11 9 8 7 7 7 6 5 5 4 4 3 3
11 12 12 13 13 14 14 14 13 13 13 13 12 12 12 12 11 11 11 10 8 7 6 6 5 5 5 4 4 3 3 3
11 11 12 12 13 13 13 12 12 12 12 11 11 11 10 10 9 9 9 8 7 6 5 3 3 4 4 4 3 3 3 2
10 11 12 13 13 12 12 12 11 11 11 10 10 9 9 9 9 9 8 7 6 5 4 3 4 4 4 4 3 3 3 3
10 11 12 12 12 12 11 11 10 10 10 9 9 9 9 9 8 8 7 6 5 5 4 3 3 4 4 4 3 3 3 2
10 11 11 11 11 10 10 10 10 9 9 8 8 8 7 7 7 5 5 4 4 3 3 3 3 4 4 3 3 2 1 0
9 10 10 10 10 10 10 9 9 9 9 8 8 7 6 6 6 6 5 5 5 5 4 3 3 4 3 3 2 1 -0 -1
9 8 9 9 9 9 9 9 9 9 8 8 7 6 6 5 5 5 5 5 4 3 3 3 3 3 3 2 1 -0 -1 -1
9 8 9 9 9 9 9 9 8 8 8 7 6 6 5 5 4 4 4 3 2 2 2 3 3 2 2 1 -0 -1 -2 -2
10 10 9 9 9 9 9 8 8 7 7 6 6 5 4 4 3 3 2 2 2 2 3 3 2 2 0 -0 -1 -2 -3 -4
9 9 9 9 9 9 8 8 7 7 6 6 5 4 4 3 3 3 2 2 2 2 2 1 1 -1 -1 -2 -3 -4 -5 -6
8 9 9 9 9 8 8 8 7 6 6 5 4 4 4 3 2 2 2 2 2 1 1 -0 -1 -1 -2 -3 -5 -6 -7 -7

GFSFLT1_925_temp_012.txt.gz
Temp
13 14 16 17 16 16 15 16 16 15 15 15 15 15 16 16 16 16 16 15 16 15 15 14 13 13 12 12 11 11 10 9
13 13 14 15 15 15 16 16 15 15 15 15 16 16 15 15 15 15 15 14 14 14 13 12 12 11 10 10 10 9 9 8
13 13 15 16 16 16 15 16 16 16 17 17 16 15 15 14 14 13 12 12 12 12 11 11 11 10 10 9 9 8 8 7
13 14 15 15 15 16 16 16 17 17 17 17 16 16 15 13 12 12 11 11 10 10 10 10 10 10 9 8 8 7 7 6
13 14 16 17 16 17 17 16 16 17 17 17 16 15 14 12 11 11 10 10 10 10 10 9 9 8 8 7 6 6 5 4
14 14 15 15 16 16 16 16 16 16 16 15 14 13 12 10 10 10 11 12 11 10 9 8 7 7 6 5 5 5 4 4
13 13 14 14 15 16 16 15 15 14 14 13 12 12 11 11 11 11 11 10 10 10 8 7 6 5 5 4 4 4 4 3
11 12 13 13 14 14 14 13 13 12 12 12 12 11 11 11 11 10 10 10 10 9 6 6 5 4 4 4 3 3 3 3
11 11 11 12 12 13 13 12 11 11 11 10 10 10 9 9 9 9 9 9 9 7 6 5 4 4 3 3 3 4 3 3
9 10 11 11 12 11 11 11 11 11 11 10 10 10 9 9 9 9 8 8 8 6 5 4 3 3 3 3 3 3 3 3
9 10 10 11 11 11 11 11 11 10 10 10 9 9 9 8 8 8 8 7 5 5 4 3 2 2 3 3 3 3 3 3
8 9 10 11 11 11 11 11 11 10 9 9 9 8 8 7 7 7 6 6 5 5 4 4 3 3 3 2 3 3 2 2
9 10 10 10 10 10 11 10 10 9 9 8 8 7 7 6 6 5 5 5 5 5 4 3 3 3 3 2 3 2 2 1
8 9 9 9 9 10 9 9 9 9 9 8 7 7 6 6 5 5 4 4 4 3 2 2 2 3 3 3 2 2 0 -0
8 8 9 9 9 10 9 9 9 9 8 7 7 6 5 5 4 4 3 3 2 3 2 2 3 3 2 2 1 0 -0 -1
8 7 8 9 9 9 9 9 8 8 7 7 6 6 5 4 4 3 3 3 3 2 2 2 2 2 2 1 -0 -1 -2 -3
9 8 9 9 9 9 9 8 8 7 7 6 6 5 4 4 4 3 3 2 2 2 1 1 1 2 -0 -1 -1 -2 -4 -5
9 9 9 9 9 9 8 8 8 7 6 6 6 5 4 4 3 2 2 2 2 1 1 1 0 -1 -1 -2 -3 -4 -5 -6
8 9 9 9 9 8 8 7 7 6 6 6 5 4 3 3 2 2 2 1 1 1 -0 -1 -1 -1 -2 -3 -4 -5 -6 -7

GFSFLT1_925_temp_015.txt.gz
Temp
13 13 14 14 14 14 15 15 15 16 15 15 15 15 16 15 15 15 15 14 14 14 13 13 12 12 12 11 10 9 9 8
13 13 14 14 14 15 15 15 15 16 15 15 15 16 15 15 15 14 14 13 13 12 12 11 11 11 11 11 10 10 9 8
14 13 14 14 15 16 16 15 15 16 16 16 16 15 15 14 13 13 12 12 11 11 11 11 10 10 9 9 8 8 8 6
15 14 14 13 13 15 15 15 15 16 16 16 15 14 13 12 11 11 11 11 11 11 11 10 9 9 7 7 6 6 7 6
15 14 13 13 13 14 15 14 15 15 15 15 14 13 12 11 11 11 11 11 10 10 9 8 8 7 6 5 5 4 5 5
16 14 13 13 14 14 14 14 14 14 14 14 13 13 12 11 11 11 10 10 9 9 8 8 7 6 6 5 4 4 4 4
15 14 13 12 13 13 13 13 13 13 13 12 12 11 11 10 10 9 9 9 9 9 8 7 6 5 4 3 3 3 3 3
14 14 13 12 11 12 12 12 11 11 11 11 11 10 10 9 9 8 8 8 8 7 7 6 5 4 4 4 4 4 3 3
15 13 12 11 11 11 11 11 10 11 11 11 11 10 10 9 9 8 7 7 7 7 6 5 4 4 3 2 3 3 2 2
14 12 11 11 10 11 12 10 10 11 11 10 10 9 9 8 8 8 7 7 7 6 5 3 4 4 4 3 2 2 2 2
13 11 10 10 10 11 11 11 11 11 10 9 9 9 8 8 7 7 6 6 5 4 4 3 4 4 3 2 2 2 1 2
12 11 10 10 9 9 10 10 11 10 10 9 9 8 8 7 6 6 5 5 5 4 3 3 3 3 3 1 2 3 2 1
11 11 10 9 9 9 10 11 11 10 9 8 8 7 7 6 5 5 4 4 4 3 3 2 2 2 1 2 2 3 1 1
11 10 10 9 9 10 11 10 10 9 8 8 7 7 6 5 4 4 4 3 2 2 2 2 1 1 1 2 2 2 0 -0
11 11 10 9 9 10 10 9 8 8 8 8 7 6 6 5 4 4 3 2 2 2 2 1 1 1 1 2 2 0 -1 -2
11 11 10 9 9 10 10 9 8 8 8 7 6 6 5 5 4 3 2 2 2 2 2 1 1 1 1 0 -0 -1 -2 -3
11 10 10 9 9 9 9 8 8 7 7 6 6 5 5 4 4 3 2 2 2 2 1 1 1 0 -1 -1 -1 -2 -3 -4
11 10 10 10 9 9 8 8 7 7 6 6 5 5 5 4 3 2 2 1 1 1 0 0 -1 -2 -2 -2 -2 -4 -4 -5
11 10 9 9 9 8 8 7 7 6 6 5 5 4 4 3 3 2 1 1 0 0 -0 -1 -2 -2 -2 -3 -3 -5 -5 -6

GFSFLT1_925_temp_018.txt.gz
Temp
20 20 20 21 20 19 16 15 14 13 14 16 14 14 14 14 14 14 14 13 13 13 13 12 12 13 13 12 12 12 12 12
19 19 18 18 18 17 16 15 14 14 15 16 16 16 15 14 14 13 12 12 12 12 13 12 12 12 11 11 11 12 12 11
19 18 18 18 18 17 16 16 15 17 17 18 17 17 15 14 13 12 12 12 12 12 12 12 11 11 11 10 10 10 11 10
20 19 19 18 17 17 17 17 17 17 16 16 15 15 14 15 14 13 12 11 11 11 11 11 10 10 10 9 9 8 9 9
21 19 19 18 17 17 17 17 16 15 15 16 16 16 17 13 13 12 12 11 11 10 10 10 9 9 9 9 8 7 7 8
21 20 19 18 16 16 16 15 15 15 14 15 15 14 14 13 13 12 12 11 11 10 10 9 9 9 8 7 7 6 7 7
20 19 18 17 16 15 15 15 14 14 14 13 13 13 13 13 12 12 12 11 11 11 10 8 8 8 7 6 6 6 5 6
20 18 18 16 15 15 14 14 14 13 13 12 12 12 11 12 11 11 10 10 10 10 9 8 8 7 6 5 5 5 5 5
20 19 18 16 15 15 14 14 13 13 12 12 11 11 11 11 10 9 9 9 8 8 7 7 7 6 5 4 5 5 5 4
20 18 17 15 15 14 14 14 13 12 11 10 10 10 10 9 9 8 8 8 7 7 6 6 6 5 5 4 5 5 5 4
19 17 15 15 14 13 13 13 12 10 9 9 10 9 9 8 8 8 7 7 7 6 6 6 6 5 5 5 5 4 4 4
18 16 15 14 14 13 12 12 10 9 10 10 9 9 8 8 8 7 7 6 6 6 5 5 5 4 4 4 4 3 4 4
18 16 15 14 13 13 12 11 10 11 10 9 9 9 9 8 7 7 6 5 5 5 4 4 5 5 4 4 3 4 4 4
17 16 15 14 13 12 11 10 11 10 10 10 9 9 8 7 7 6 6 5 5 4 5 5 4 3 2 3 3 3 3 3
17 16 15 14 12 11 10 9 10 10 10 10 10 8 8 7 6 6 5 5 4 4 4 4 3 3 3 3 3 2 2 2
16 16 15 13 12 11 10 12 11 10 9 9 9 8 7 7 6 5 5 4 4 4 4 4 3 2 1 1 2 2 1 1
16 16 15 14 13 10 12 11 10 9 9 9 8 7 7 6 6 5 4 4 4 4 4 3 3 2 -0 -1 -1 1 0 0
16 16 15 14 12 12 12 11 9 9 9 8 7 7 6 6 5 5 4 4 3 3 3 2 2 1 -2 -1 -1 -1 -1 -1
17 16 14 13 13 12 11 10 9 8 8 7 6 6 5 5 5 5 4 4 3 3 3 2 2 -0 -2 -2 -2 -2 -2 -2

GFSFLT1_925_temp_021.txt.gz
Temp
25 24 25 25 24 22 20 18 17 15 15 15 16 15 15 16 16 16 16 15 14 15 15 13 14 14 14 13 13 13 13 14
24 23 23 23 22 21 18 16 15 15 17 17 17 17 17 17 16 15 15 14 14 14 15 14 14 13 13 13 12 12 12 13
24 23 22 22 21 21 18 17 16 18 19 19 19 19 18 17 16 14 14 14 14 14 13 13 13 12 12 12 12 11 11 12
24 23 22 21 20 19 19 18 18 20 20 18 18 17 16 17 16 16 14 13 13 13 12 12 12 11 12 11 11 10 10 10
24 23 22 21 20 20 20 20 19 18 19 19 19 19 19 16 16 15 14 13 12 12 12 11 11 11 11 10 11 9 9 9
24 23 22 21 20 20 19 19 18 18 17 17 17 17 16 15 15 14 14 14 13 13 12 12 11 10 10 10 9 9 8 8
24 23 21 20 19 18 18 18 17 17 16 15 15 15 15 14 14 13 13 12 12 12 11 10 10 10 9 9 9 8 7 7
23 23 21 20 18 17 17 17 16 15 15 14 14 13 13 13 12 12 11 11 11 10 9 9 9 9 9 8 7 6 6 7
23 22 21 19 18 17 17 17 16 15 14 14 12 11 10 11 11 11 11 10 10 9 9 8 8 9 8 6 6 5 5 5
23 22 21 19 18 17 17 16 16 14 13 12 10 10 11 11 10 10 10 9 9 9 8 8 8 8 7 6 5 5 6 6
23 22 20 19 18 17 16 16 15 13 11 10 10 11 11 11 10 10 9 8 8 8 7 7 7 7 7 6 6 6 5 5
23 21 19 18 17 16 15 15 13 12 11 10 11 11 11 10 10 9 8 8 7 7 7 7 6 7 7 6 6 5 5 4
23 21 19 18 17 16 15 14 13 12 11 11 11 11 11 10 10 9 8 7 7 7 6 6 7 7 6 6 5 4 4 4
23 21 19 18 17 16 15 13 13 12 11 11 12 11 11 10 9 9 8 7 7 6 6 6 6 5 4 5 5 5 4 4
23 21 19 18 17 16 14 13 12 11 11 12 12 11 11 10 9 8 8 7 6 6 6 6 6 5 5 4 3 3 3 3
22 21 20 18 17 15 14 13 11 12 12 12 12 11 10 9 9 8 7 6 6 6 6 6 5 4 3 3 3 3 3 2
22 20 19 18 17 15 14 12 13 12 12 11 11 10 10 9 8 7 7 7 6 6 5 5 5 4 1 1 0 1 2 1
21 20 19 18 17 15 14 13 13 12 11 11 10 10 9 8 8 7 7 7 6 5 5 4 4 3 1 0 -0 -0 1 1
21 20 18 18 17 15 13 13 12 11 11 10 9 9 8 8 7 7 7 6 6 5 5 4 3 2 1 -0 -1 -1 0 -0

GFSFLT1_925_temp_024.txt.gz
Temp
26 26 26 25 23 21 20 19 16 15 16 17 16 16 15 16 16 16 16 15 15 15 15 14 14 14 14 13 13 12 12 12
25 25 25 25 23 20 19 17 16 16 16 16 17 16 17 17 16 16 15 14 14 14 14 14 14 13 12 12 12 12 11 11
25 24 24 24 23 19 17 17 16 16 17 17 18 18 18 17 15 15 14 14 14 14 13 13 12 12 12 12 11 11 11 11
25 24 23 23 20 18 17 17 17 17 18 19 18 17 17 16 15 14 14 13 13 13 13 12 12 11 11 11 11 10 10 9
25 24 23 20 19 18 18 18 18 19 19 19 18 18 17 16 16 14 14 14 13 13 13 12 12 11 10 10 10 10 9 9
25 24 21 20 20 19 19 20 19 19 19 18 18 16 16 15 14 14 14 13 13 12 12 11 10 10 10 10 9 9 9 8
25 24 22 21 21 20 19 19 18 18 17 17 16 15 15 14 13 13 12 12 12 11 11 10 9 9 9 9 9 9 8 7
24 23 22 20 19 18 18 18 17 16 15 14 14 14 14 13 12 12 11 11 11 10 9 9 8 8 8 9 8 7 7 6
23 22 21 19 18 18 18 17 16 15 15 14 13 12 12 12 12 11 11 10 10 9 9 8 8 8 8 8 7 7 6 5
23 22 21 19 18 18 18 17 16 15 14 13 12 12 12 12 11 10 10 9 9 9 8 8 8 7 7 7 7 6 5 5
23 22 21 20 19 18 17 17 16 14 13 12 11 11 11 11 10 10 9 9 8 8 8 7 7 7 7 7 7 6 6 5
23 22 21 20 18 17 17 17 15 14 12 11 11 11 11 11 10 10 9 9 8 8 7 7 7 7 7 6 6 6 5 4
23 23 21 20 18 17 17 16 15 13 12 11 11 11 11 11 11 10 9 8 8 7 7 7 7 7 6 5 5 5 5 4
24 22 21 19 18 17 16 15 14 13 12 12 11 11 11 11 11 10 9 8 8 7 6 6 6 6 6 5 4 4 4 4
25 22 21 19 19 17 16 15 14 13 13 12 11 12 11 11 10 9 9 8 7 7 6 6 6 6 6 5 4 4 3 3
25 23 21 20 19 17 16 15 14 13 12 11 12 12 11 11 10 9 8 8 7 6 6 6 6 5 4 3 3 2 2 2
25 24 22 20 19 18 16 15 13 12 11 12 12 11 11 10 9 9 8 7 7 7 6 6 5 4 3 2 2 1 1 1
23 23 22 21 19 18 16 15 13 13 12 12 11 11 9 9 9 8 7 7 7 6 6 5 5 3 2 2 1 1 0 1
22 22 21 20 19 18 16 15 13 13 12 11 9 9 9 8 7 6 7 7 6 6 5 5 4 3 2 1 1 0 -0 -0

GFSFLT1_925_temp_027.txt.gz
Temp
24 24 21 20 20 20 19 18 18 18 18 17 16 15 16 16 15 15 15 15 15 15 15 14 14 14 13 13 12 12 12 11
25 25 22 20 20 19 19 19 18 17 17 16 15 15 16 15 15 15 15 15 15 14 14 13 13 12 12 12 11 11 11 10
23 24 22 20 18 18 18 18 16 17 17 17 17 16 16 16 16 15 14 14 14 13 13 13 12 12 12 11 11 10 10 10
21 22 21 19 17 18 17 17 16 17 17 17 16 17 16 16 15 14 14 14 13 13 13 12 12 11 11 10 10 10 9 9
21 21 20 18 17 17 17 17 17 17 17 16 17 16 15 15 14 14 13 13 13 13 12 12 11 10 10 10 10 9 9 8
21 20 18 18 18 18 17 18 18 17 17 18 17 16 15 14 14 13 13 13 13 13 12 11 11 10 9 9 9 9 9 8
20 19 19 18 19 19 18 18 18 18 18 17 17 16 14 14 14 14 13 13 12 11 11 10 9 8 8 8 8 8 7 7
19 18 19 18 18 18 18 18 17 17 17 16 15 14 14 14 14 13 12 11 11 10 10 9 8 8 8 8 8 7 7 6
18 17 17 17 18 18 18 17 16 16 15 15 14 14 14 14 13 12 11 11 10 9 9 8 8 7 7 7 7 7 7 6
18 17 17 18 18 18 17 16 15 15 14 14 14 14 13 12 11 11 10 10 9 9 8 8 7 7 7 7 7 7 6 5
18 17 17 18 18 18 17 16 15 14 14 13 13 12 12 11 11 10 10 9 9 8 8 7 7 7 6 6 6 6 5 5
18 17 17 18 18 18 17 16 15 14 13 13 12 11 11 11 10 10 10 9 8 8 7 7 7 6 6 6 6 5 5 4
18 17 17 17 17 17 17 16 15 13 12 12 12 11 11 11 10 10 9 9 8 8 7 7 6 6 6 6 6 4 4 4
18 17 17 17 16 17 17 15 14 13 12 12 11 11 11 11 10 10 9 9 8 7 7 6 6 6 6 5 5 4 4 3
19 18 18 17 16 15 16 15 14 13 12 12 11 11 11 11 11 10 9 9 8 7 7 6 6 6 5 4 4 3 3 2
19 18 17 17 16 15 15 15 14 13 12 12 12 11 11 10 10 9 9 8 8 7 7 6 6 5 5 4 3 3 2 2
19 18 16 16 15 14 15 15 14 13 12 12 12 11 11 9 9 8 8 8 7 7 7 6 5 5 4 4 3 2 2 1
18 17 16 17 16 16 14 14 13 13 12 12 10 10 9 8 8 7 7 7 6 6 6 6 5 5 4 3 2 2 1 0
18 18 19 18 18 16 15 14 13 12 11 9 9 8 7 6 5 6 6 4 4 5 5 5 5 4 4 3 2 1 0 -0

GFSFLT1_925_temp_033.txt.gz
Temp
17 17 17 17 17 17 17 17 17 17 16 16 16 16 17 17 16 16 15 15 14 15 14 14 14 13 13 12 12 11 10 10
18 17 17 16 16 16 17 17 18 17 16 16 16 16 16 15 15 14 14 14 14 15 14 14 13 13 12 12 11 10 10 10
18 17 17 16 16 17 17 17 17 16 17 16 16 16 15 15 14 14 14 15 14 14 14 13 12 12 11 11 10 10 9 9
18 17 17 16 16 17 17 17 17 17 17 16 16 15 14 13 13 14 14 14 14 13 12 12 12 11 11 10 10 9 9 9
19 18 17 16 16 16 16 16 17 17 17 16 16 15 13 14 14 14 13 13 13 12 12 11 11 10 10 9 8 8 8 8
18 18 18 17 16 16 16 16 16 16 16 16 15 14 14 14 14 13 12 12 12 12 11 10 10 10 9 9 8 8 8 7
16 18 18 16 16 16 15 15 15 15 16 15 14 14 14 14 13 12 12 12 11 10 10 9 8 8 8 8 7 7 7 7
15 15 16 15 15 15 14 14 14 15 15 16 15 15 15 15 13 12 11 10 10 9 9 9 8 8 7 7 6 6 6 6
16 16 16 15 14 14 14 15 15 16 15 15 15 15 14 14 13 12 11 10 10 9 9 8 8 7 7 7 6 6 6 6
15 15 15 15 14 14 15 16 16 16 15 15 15 15 13 13 12 11 10 10 9 9 8 8 8 7 7 6 6 6 6 5
14 14 14 14 15 14 14 16 16 15 16 16 15 14 13 13 12 11 11 10 9 8 8 8 8 7 7 6 6 6 5 5
14 15 14 14 14 15 16 15 15 15 15 15 14 13 13 13 12 11 11 10 9 9 9 9 7 7 6 6 6 5 5 5
15 14 14 14 15 15 15 14 15 14 14 14 14 13 13 12 12 11 10 10 9 9 9 8 7 7 6 6 6 5 5 4
14 13 14 14 14 13 13 12 12 12 13 13 13 12 12 12 11 11 10 10 9 8 8 8 7 7 7 6 6 5 5 4
14 13 13 14 14 13 13 12 12 11 13 12 12 12 12 11 11 10 10 9 8 8 8 7 7 7 6 6 5 5 4 3
14 13 12 14 13 13 13 12 11 12 12 11 12 12 11 11 10 10 9 8 7 7 6 6 6 6 5 5 5 4 4 3
14 14 13 13 14 13 12 12 12 12 11 10 9 10 9 9 8 7 6 5 5 5 4 5 5 5 5 5 5 4 3 2
13 14 13 14 14 14 12 11 11 9 9 9 9 8 7 6 5 5 5 4 3 3 3 4 4 5 5 5 4 3 3 2
8 7 10 11 12 12 11 10 9 9 6 5 6 5 4 4 5 4 3 2 2 3 3 3 4 4 4 4 3 2 2 2

GFSFLT1_925_temp_036.txt.gz
Temp
16 16 16 16 16 17 17 17 16 16 16 16 16 15 15 16 15 16 16 15 15 15 14 14 13 13 13 12 12 11 10 10
17 17 17 16 16 16 17 17 17 17 16 15 15 15 15 15 15 15 15 14 14 14 14 13 12 12 12 11 11 10 9 9
17 16 16 16 17 17 17 17 17 16 16 16 15 15 15 16 15 15 14 14 14 13 13 12 12 12 11 10 10 9 8 8
17 16 16 16 16 17 16 16 16 16 16 15 15 15 15 14 14 14 14 13 13 13 12 12 11 11 10 9 9 9 8 8
17 17 16 16 15 16 16 16 16 16 16 16 15 15 14 13 14 14 13 12 12 12 12 11 10 10 10 9 8 8 8 7
17 17 17 17 16 16 16 16 16 15 16 16 15 15 14 13 13 13 12 12 12 11 11 10 10 10 9 9 8 8 8 7
17 18 18 16 16 16 16 15 15 15 15 15 15 14 13 13 12 11 11 11 11 10 10 10 10 9 8 8 8 8 7 6
15 15 16 16 16 15 15 15 14 14 14 14 14 14 14 14 13 12 11 10 10 9 10 9 8 8 8 8 8 7 6 6
16 16 16 15 15 15 15 15 17 15 14 14 14 13 14 13 13 12 11 11 10 9 9 9 8 8 8 8 7 7 6 6
16 15 15 15 15 15 15 14 15 14 14 14 14 14 13 13 12 12 11 10 10 9 10 9 8 8 8 8 7 6 6 6
14 14 15 15 15 15 15 15 16 14 14 14 14 14 12 12 12 11 11 10 10 9 9 8 8 8 8 7 6 6 5 5
13 13 14 15 15 15 16 15 14 14 15 14 13 13 12 11 11 11 11 10 10 9 9 8 8 8 7 7 6 6 5 5
13 13 13 13 14 13 13 14 14 14 13 13 13 12 11 11 11 11 11 10 10 9 9 8 8 8 7 7 6 6 5 5
13 12 12 12 12 12 14 13 13 14 13 13 12 12 12 12 11 11 11 10 9 9 8 8 8 7 6 6 6 6 5 5
12 12 11 13 13 13 13 12 12 12 12 12 12 11 11 9 9 9 9 9 9 8 8 7 6 6 5 6 6 5 5 5
13 13 11 13 13 12 12 11 10 10 10 11 10 10 9 9 9 9 9 8 7 6 5 5 5 3 4 5 5 5 5 4
14 14 13 12 12 13 13 13 12 11 11 10 9 9 8 9 9 8 7 6 5 5 4 4 3 3 4 5 5 4 4 4
9 8 8 10 12 12 11 10 9 9 8 8 8 8 7 6 5 5 4 4 4 3 3 3 2 2 3 4 4 4 3 3
5 5 5 6 8 8 8 8 8 7 6 6 5 5 5 4 4 3 3 2 2 3 2 1 2 3 3 3 3 3 3 2

GFSFLT1_925_temp_039.txt.gz
Temp
17 16 16 15 15 14 15 15 16 15 15 16 16 16 15 16 15 15 15 15 15 15 15 14 14 13 13 12 12 11 11 10
17 16 16 16 15 15 15 15 16 15 15 15 14 14 15 15 14 14 14 14 15 14 14 14 13 13 12 12 11 11 10 10
18 17 16 16 16 15 15 15 16 16 15 16 14 14 14 14 14 14 14 14 14 14 14 13 12 12 12 11 11 10 9 8
18 17 17 16 16 16 15 15 16 16 16 16 15 15 14 13 13 14 13 13 13 13 13 13 12 12 11 11 10 9 9 7
20 18 17 16 16 16 16 15 16 16 16 15 15 15 14 12 13 13 13 12 13 13 12 12 11 11 11 10 9 8 8 8
20 20 19 17 16 15 15 15 15 15 16 14 14 14 14 14 13 13 12 12 12 12 12 11 11 11 10 9 8 8 7 8
20 20 19 18 16 15 15 15 14 14 14 14 14 13 14 14 13 12 12 11 11 11 11 11 11 10 9 8 7 7 7 7
20 20 19 18 16 15 15 15 14 15 14 13 13 13 14 14 14 13 12 11 10 10 10 10 9 9 8 8 8 7 7 6
21 20 20 18 17 16 15 15 15 17 15 15 13 13 13 13 14 13 12 11 10 10 9 9 9 8 8 8 7 7 7 6
20 20 19 18 16 16 15 15 15 16 17 13 13 13 12 13 13 12 11 11 11 9 9 9 8 9 8 7 7 7 6 6
18 19 18 17 16 16 14 15 15 17 14 13 12 12 12 13 13 12 10 10 10 9 8 8 9 8 7 7 7 7 7 6
18 18 16 16 16 15 15 15 15 14 13 13 14 13 12 12 11 11 10 10 9 8 8 8 8 7 7 7 7 6 6 6
18 17 16 15 15 15 14 14 13 13 15 15 14 13 13 12 11 10 9 9 8 8 8 8 7 7 7 7 6 4 5 5
17 16 16 15 14 13 13 13 13 13 13 12 11 10 9 8 9 9 8 7 7 8 9 8 7 7 7 6 5 4 4 5
17 16 15 14 14 13 13 12 11 11 10 9 9 8 8 8 7 7 7 7 8 9 8 7 6 5 6 5 4 3 4 4
16 16 15 14 14 12 12 13 13 12 11 10 9 8 7 7 8 8 8 8 8 7 6 5 4 4 5 3 3 3 3 3
13 14 14 13 13 12 11 10 9 9 9 8 7 8 8 8 8 7 7 6 5 4 4 4 4 3 2 3 3 3 3 3
10 10 9 9 10 10 9 8 8 8 7 7 7 7 7 6 5 5 4 3 3 3 3 3 3 2 2 2 2 2 2 2
8 8 7 7 7 7 7 6 6 6 5 5 5 4 3 3 3 2 2 3 4 3 3 3 2 2 2 2 2 2 2 2

GFSFLT1_925_temp_042.txt.gz
Temp
18 19 19 18 18 18 17 16 16 16 16 16 16 17 17 17 16 16 15 15 15 15 15 14 14 14 14 14 14 14 14 14
20 19 19 19 18 18 17 17 17 16 16 16 17 17 17 16 15 15 14 15 14 15 15 13 14 14 14 13 13 13 13 12
21 20 20 19 19 18 18 18 17 17 17 17 18 18 17 17 16 15 14 15 14 14 14 14 14 13 12 12 13 13 13 12
23 21 21 20 20 19 18 18 18 18 18 18 17 17 17 16 14 14 14 14 14 14 13 14 13 13 13 12 12 12 13 11
25 23 22 21 20 20 19 19 19 18 18 18 17 18 18 17 15 14 14 13 13 13 13 13 12 13 12 12 12 12 11 11
25 25 23 22 21 20 19 19 19 18 17 18 17 18 19 19 16 15 14 13 12 12 12 12 12 12 12 11 10 10 10 9
26 26 24 23 22 20 19 19 19 18 17 16 17 17 18 15 15 14 13 12 12 11 11 11 11 11 10 10 10 9 8 7
27 27 26 24 23 21 19 19 19 17 16 16 15 15 16 14 14 14 13 12 10 10 10 10 10 10 10 9 9 7 7 8
27 27 26 25 24 22 19 19 18 16 15 15 16 14 14 13 14 14 13 11 10 10 10 9 10 9 8 9 8 8 7 8
27 27 26 25 24 22 20 19 18 18 15 17 17 14 13 13 13 13 11 11 10 10 9 9 8 8 9 8 7 6 7 8
25 25 25 24 23 22 20 19 20 19 15 16 14 14 13 13 13 12 11 10 10 9 9 8 7 8 8 7 7 7 8 7
25 24 23 22 21 21 20 19 20 19 17 16 14 13 13 13 12 11 10 10 10 8 8 8 7 8 7 7 7 7 6 5
25 24 22 21 21 20 19 19 19 19 18 17 15 14 13 12 11 10 9 8 8 7 8 7 8 7 6 6 6 6 5 5
25 23 23 22 20 19 18 18 18 17 17 15 14 12 11 10 9 9 8 8 7 8 8 7 6 6 6 6 6 5 4 5
25 23 22 21 19 18 18 16 15 14 14 14 13 12 11 11 9 8 7 7 7 7 7 6 6 6 5 4 4 3 3 4
22 22 22 20 19 17 16 15 14 14 14 14 12 11 11 10 9 9 8 8 6 6 5 5 5 3 4 4 3 2 2 4
20 20 20 18 17 17 15 14 13 13 13 12 11 10 9 8 7 6 6 5 5 5 4 4 4 4 4 3 3 2 2 4
17 17 16 16 15 15 14 12 12 12 11 10 9 8 7 5 5 4 5 4 4 5 4 5 4 5 4 3 2 1 3 4
15 15 14 13 13 12 11 11 10 10 10 9 8 7 6 5 4 4 3 4 4 4 4 4 4 3 3 2 2 1 3 4

GFSFLT1_925_temp_045.txt.gz
Temp
19 18 18 18 18 16 15 16 15 16 16 18 18 18 18 19 19 19 17 17 16 16 18 17 16 17 16 16 16 16 17 16
20 20 19 19 19 19 18 17 17 16 16 18 18 18 19 19 19 19 18 17 16 16 18 16 16 17 16 15 15 15 15 15
21 21 21 20 20 20 19 18 18 17 17 18 19 19 19 19 19 17 16 17 17 16 17 16 15 16 16 14 15 15 16 14
23 23 23 22 21 21 20 20 19 19 20 19 20 20 20 19 19 18 16 16 17 16 16 16 16 16 15 14 14 15 15 14
25 24 23 22 22 22 21 21 20 19 20 20 20 20 20 20 19 17 16 16 16 16 16 15 15 15 15 14 14 14 14 15
27 25 24 23 22 22 21 21 21 21 20 20 20 20 20 21 20 18 17 17 15 15 15 14 14 14 14 14 14 13 13 11
28 27 25 25 23 22 21 21 21 21 21 20 20 20 19 20 19 18 18 16 15 15 15 13 13 13 13 13 12 11 10 9
29 28 27 26 24 23 22 21 21 21 21 19 19 19 18 17 17 17 16 16 15 14 13 12 12 12 12 12 11 10 9 9
29 29 28 27 26 24 23 22 22 22 20 19 17 17 17 16 16 15 14 14 13 13 12 11 11 11 11 10 10 9 9 8
30 30 29 28 27 26 24 22 22 22 20 17 16 16 15 15 14 14 14 13 13 11 11 10 10 10 10 8 8 8 8 8
30 30 30 29 28 27 25 23 22 21 17 16 16 15 15 15 14 13 13 13 12 10 10 10 10 9 8 7 7 7 7 8
28 28 28 28 27 26 25 23 23 21 19 17 17 16 15 14 14 13 13 12 10 10 9 9 9 8 6 6 7 7 7 6
29 27 26 25 25 25 24 23 22 23 18 18 18 16 16 14 13 13 12 11 10 10 9 8 8 7 6 7 7 6 6 5
28 27 26 25 24 24 23 22 22 22 22 19 17 14 13 13 12 11 11 10 9 8 8 8 8 7 6 6 6 5 4 5
28 27 26 25 23 22 21 21 21 20 20 19 17 14 12 11 10 9 9 8 7 7 8 7 7 7 6 5 5 4 5 4
27 27 26 24 22 21 20 18 17 17 18 17 15 14 13 12 11 10 9 8 7 7 7 6 6 6 5 5 5 5 4 3
25 25 24 23 21 20 18 17 16 16 16 14 13 13 12 11 11 9 9 8 7 6 6 6 5 4 5 4 5 4 3 2
23 23 22 21 19 18 16 16 15 15 14 13 12 11 9 9 8 7 7 6 6 4 4 4 5 6 5 4 4 3 2 2
20 20 19 18 17 16 15 15 14 13 12 11 10 9 8 8 8 7 6 6 5 5 6 6 5 4 4 4 3 2 3 4

GFSFLT1_925_temp_048.txt.gz
Temp
18 17 14 13 12 12 12 12 12 13 15 16 16 17 17 17 18 18 17 17 17 17 17 17 17 17 17 17 17 17 17 17
18 18 16 15 14 14 13 13 14 14 15 15 16 17 18 18 18 19 18 18 17 16 17 17 16 17 17 16 16 16 16 16
20 18 18 17 16 15 15 15 14 14 15 16 17 18 18 18 19 19 19 18 17 16 17 17 16 16 17 16 16 15 15 15
20 19 19 19 17 16 16 16 16 16 16 17 18 19 19 19 19 19 18 17 17 17 16 17 16 16 16 16 15 15 15 15
21 20 20 19 19 18 19 18 18 17 17 17 19 19 19 19 20 19 18 18 16 17 17 17 16 16 16 15 14 14 15 14
22 22 22 21 21 20 20 19 19 19 19 19 19 20 20 20 20 20 19 17 17 17 17 16 16 15 15 15 14 14 14 13
25 24 23 23 23 22 21 21 21 20 19 20 19 20 20 20 20 19 18 17 17 16 16 16 15 15 14 14 14 14 13 12
26 25 24 24 23 22 22 21 21 21 20 20 20 20 19 20 19 19 17 16 14 15 15 15 14 14 13 13 13 12 12 11
27 27 25 25 24 22 22 21 21 21 21 21 20 20 20 19 19 18 17 17 15 14 14 14 13 13 12 12 12 11 10 9
28 28 27 26 25 24 22 22 21 21 21 21 20 19 18 18 16 17 17 17 14 14 14 13 12 12 11 11 11 10 8 8
29 28 28 27 26 24 23 22 22 22 22 20 19 19 16 16 16 15 15 14 13 13 13 12 12 11 10 10 10 8 7 8
28 28 29 28 28 26 23 23 23 22 22 18 17 16 16 15 15 15 14 13 12 13 12 11 10 10 10 9 8 7 7 6
27 28 27 27 27 27 24 24 23 22 20 18 18 19 17 15 15 15 14 13 13 12 11 9 9 9 9 8 7 7 6 6
28 27 26 26 26 26 26 24 24 21 21 18 18 17 17 15 14 13 12 12 11 10 10 9 9 8 7 7 6 6 6 6
28 27 26 25 25 24 24 23 23 22 20 18 16 15 14 13 12 12 11 11 10 10 9 8 8 7 7 5 5 6 6 5
27 27 26 24 23 23 22 20 19 19 17 15 14 13 12 11 11 10 9 9 8 7 7 7 7 7 6 6 6 5 5 4
27 27 26 23 23 21 19 18 18 18 15 14 13 13 12 11 10 9 8 8 7 7 7 7 6 6 6 5 5 5 4 5
25 25 24 22 21 19 18 17 17 16 15 14 13 12 10 10 9 8 8 7 6 6 5 6 5 5 5 5 4 4 4 3
23 23 21 19 19 18 16 16 15 14 13 12 11 10 9 8 8 7 6 6 5 5 5 5 5 5 5 4 4 3 3 3